Tracking 30417 objects as of 16-May-2025
HD Live streaming from Space Station
objects crossing your sky now

STARLINK-5990

Track STARLINK-5990 now!
10-day predictions
STARLINK-5990 is classified as:


NORAD ID: 56448
Int'l Code: 2023-064A
Perigee: 576.9 km
Apogee: 581.4 km
Inclination: 70.0 °
Period: 96.1 minutes
Semi major axis: 6950 km
RCS: Unknown
Launch date: May 10, 2023
Source: United States (US)
Launch site: AIR FORCE WESTERN TEST RANGE (AFWTR)
Your satellite tracking list
Your tracking list is empty




NASA's NSSDC Master Catalog

Two Line Element Set (TLE):
1 56448U 23064A   25136.53664088  .00000568  00000-0  55355-4 0  9995
2 56448  69.9994 173.7564 0003244 270.2536  89.8252 14.98331844110737
Source of the keplerian elements: AFSPC